Theta_e
305 304 305 305 304 304 304 303 303 303 303 303 303 302 303 303 304 304 306 308 306 305 306 311 314 315 312 312 311 311 313 313 313 312 313 315 316 315 316 317 317 318 326 330 330
304 303 303 303 303 304 304 304 304 304 304 304 303 303 303 303 304 306 309 308 308 308 305 311 313 314 312 313 311 314 314 314 313 313 313 314 314 316 317 317 318 318 318 318 334
299 299 299 299 299 299 300 300 301 302 302 303 303 305 306 305 304 307 316 317 317 312 305 309 312 313 312 311 311 312 314 314 312 313 313 314 314 314 316 317 317 318 318 331 326
298 298 298 298 298 298 298 298 298 298 299 300 300 301 308 307 308 309 315 317 314 317 309 307 312 312 313 312 311 312 312 313 313 313 314 315 314 315 315 315 315 316 316 330 340
297 297 297 297 297 297 298 298 298 298 297 297 298 299 307 307 307 306 307 315 318 314 316 312 312 313 314 313 310 311 312 311 312 313 313 313 314 315 315 315 315 315 316 317 336
298 298 298 297 297 297 298 298 299 298 298 298 297 302 306 306 305 306 306 307 308 308 314 314 312 312 313 312 313 313 311 312 311 312 312 313 313 313 314 315 315 315 315 316 331
297 297 297 297 297 297 297 298 299 298 298 298 298 307 306 306 303 304 306 306 312 312 315 313 314 313 313 313 312 312 312 311 312 312 312 311 312 313 313 313 314 315 315 316 321
297 296 296 297 297 297 297 298 299 299 299 300 301 306 306 303 304 305 306 306 306 316 316 316 316 314 313 312 311 314 314 315 314 311 311 311 315 314 313 313 314 314 315 315 316
296 295 295 296 297 297 298 302 301 300 300 302 308 307 307 306 308 307 308 308 307 308 317 316 316 316 315 315 316 313 316 315 315 313 313 311 314 314 313 313 314 315 316 316 317
295 295 295 296 297 298 303 303 301 302 308 308 307 307 306 306 309 311 314 310 310 309 308 310 315 318 316 317 319 317 314 313 315 313 313 314 312 314 313 312 314 315 316 316 317
295 295 296 296 299 302 305 304 302 303 305 305 305 305 303 305 306 312 313 310 311 309 310 310 317 319 317 317 316 316 315 315 314 314 313 314 315 313 314 313 314 314 315 316 316
295 296 296 298 301 305 306 302 301 301 301 301 301 301 302 303 303 303 308 310 312 314 310 312 316 316 317 317 317 316 314 315 315 314 313 315 315 315 314 315 314 315 316 316 316
296 296 296 301 302 305 306 305 304 302 302 301 302 303 304 303 304 307 308 306 310 311 312 313 315 314 317 318 318 318 317 314 314 314 313 315 316 316 316 315 315 315 316 317 317
296 296 297 303 304 304 305 305 306 304 305 306 308 309 309 310 311 310 311 311 309 312 312 313 312 314 315 318 318 319 317 315 314 315 316 316 317 317 317 317 317 317 316 317 317
296 296 301 302 303 303 303 304 307 305 309 305 309 310 311 311 310 310 311 312 313 312 313 315 315 313 315 317 317 318 317 316 315 315 316 316 316 317 317 317 318 319 318 318 317
296 296 302 302 302 302 304 305 306 309 307 306 308 309 310 309 310 309 313 313 313 313 312 313 317 314 317 317 317 317 317 317 316 316 317 317 317 318 317 318 318 319 319 319 318
296 299 302 302 301 304 306 307 309 309 307 308 309 309 310 310 311 311 315 316 316 317 316 314 313 316 315 319 318 315 316 316 317 316 318 317 316 318 318 320 323 325 322 317 317
298 301 301 301 301 304 307 309 309 307 309 307 309 309 311 310 312 313 314 315 316 316 317 318 318 314 317 316 319 316 315 316 317 317 317 315 317 317 323 331 331 326 326 327 324
299 302 301 301 302 303 307 307 307 307 307 310 308 311 312 312 313 313 313 314 315 317 318 318 318 314 319 317 316 316 315 316 317 317 317 316 318 329 330 331 331 330 332 333 334
299 302 300 301 302 304 305 305 306 304 306 306 309 312 314 312 314 315 314 315 316 316 316 319 318 317 317 318 317 316 316 317 317 317 318 317 319 323 331 331 329 328 328 328 328
299 301 300 301 301 302 303 302 303 303 304 305 309 310 312 312 311 315 314 314 315 313 315 316 315 317 316 320 320 318 317 317 317 319 320 321 320 328 330 329 329 327 326 323 323
299 302 300 301 302 302 303 302 302 304 303 305 308 309 311 309 312 314 316 314 315 312 315 317 315 322 320 319 321 318 318 318 318 320 320 320 331 326 328 326 327 324 321 320 320
300 300 299 300 302 302 302 302 303 304 304 306 305 308 308 308 310 312 312 313 311 315 318 311 316 324 323 321 321 321 319 318 318 319 319 328 332 327 327 326 322 321 319 319 318
299 301 300 300 300 301 302 303 303 303 305 304 305 307 308 307 307 309 312 311 310 313 317 314 316 323 323 322 319 323 321 319 318 318 320 327 330 330 329 325 321 320 319 318 317
298 300 299 301 300 300 302 302 303 304 304 304 306 306 306 308 308 311 309 308 310 312 315 316 318 322 322 322 320 322 319 320 318 318 320 329 332 328 327 323 321 319 318 318 317
299 299 299 300 300 300 302 302 302 303 303 304 306 305 306 307 308 308 309 308 310 310 312 315 316 320 323 322 320 322 318 318 318 320 326 329 330 326 324 321 320 320 319 317 314
299 298 299 300 300 300 301 301 301 302 303 303 303 304 306 307 306 305 305 305 307 308 311 312 313 323 326 323 321 322 320 318 319 320 325 328 328 326 323 322 320 318 315 313 311
Wind_Speed
24 24 23 22 22 21 21 21 22 23 23 23 22 22 21 20 24 27 34 28 21 14 21 16 13 19 24 12 9 9 7 14 15 15 9 1 4 9 8 9 6 5 5 6 14
24 24 24 25 25 25 24 23 22 23 23 23 23 23 24 25 25 30 31 31 24 22 26 23 19 21 14 15 10 11 11 16 7 15 8 9 15 8 6 7 6 6 5 11 8
25 26 27 27 27 28 28 27 25 25 25 24 23 22 20 20 26 6 2 1 2 15 28 28 17 17 14 12 15 12 18 14 12 19 14 16 19 12 10 14 15 11 10 8 10
26 26 26 26 27 27 27 27 27 28 28 28 26 23 17 15 9 4 7 3 3 1 18 23 21 13 11 13 20 12 18 18 14 13 14 16 16 15 16 21 10 10 12 9 8
27 27 28 29 30 30 30 29 28 28 29 28 25 23 15 12 28 26 21 15 9 10 14 22 28 24 16 13 11 21 13 20 27 17 23 22 18 14 9 11 14 14 17 17 13
30 31 31 31 31 32 32 31 30 30 31 29 26 18 13 18 28 14 18 26 32 23 18 24 18 23 14 9 20 7 24 20 15 25 27 24 23 19 12 11 16 15 18 15 16
29 29 29 30 32 34 35 34 34 30 32 34 30 16 23 38 31 24 16 10 7 18 20 25 20 20 12 5 23 16 8 11 21 24 15 9 21 22 26 24 24 19 19 17 14
31 32 33 33 34 36 39 41 38 30 25 19 20 16 18 25 26 32 34 36 31 17 21 19 18 15 11 6 4 15 15 17 13 11 13 13 21 6 21 24 26 24 23 22 16
34 35 36 36 38 39 41 36 32 17 15 16 9 14 12 13 13 8 9 17 10 30 21 11 8 16 14 12 12 13 14 20 12 14 10 19 13 16 24 16 17 18 20 20 20
36 36 37 39 41 39 33 36 16 12 2 5 4 8 14 9 5 4 1 11 5 9 24 12 10 11 15 17 20 15 18 9 16 14 23 22 19 9 3 22 25 23 20 19 21
36 36 37 41 40 26 32 29 13 3 3 14 15 24 27 21 14 6 5 14 5 7 13 20 10 23 27 24 19 15 16 19 13 8 16 23 21 19 18 13 14 17 18 18 21
36 35 38 38 33 21 24 15 9 10 18 30 35 39 40 26 17 22 13 10 11 10 14 12 27 23 14 20 22 18 9 12 12 18 13 14 23 20 21 18 20 22 22 20 20
35 35 36 29 16 22 17 19 17 13 8 21 10 12 8 14 13 10 16 27 15 17 19 21 10 26 21 19 24 23 22 9 5 12 13 6 15 12 15 18 18 20 19 21 22
36 35 33 25 13 24 12 22 19 14 5 7 4 2 5 4 5 8 15 9 12 19 19 20 25 13 29 29 23 26 23 16 9 9 10 10 4 11 17 14 15 20 20 21 23
36 35 23 20 23 21 22 21 19 2 6 6 2 5 3 4 15 5 23 14 14 14 14 17 17 28 24 26 25 22 19 21 14 8 5 10 6 8 5 14 17 15 21 24 28
37 33 15 19 24 25 21 19 5 4 5 9 5 14 14 23 21 9 16 14 5 15 21 22 14 22 25 21 22 11 20 20 16 11 12 19 12 6 10 14 12 11 11 18 22
38 28 12 20 26 20 18 8 3 4 17 10 14 19 23 20 17 9 13 12 9 6 10 16 24 18 20 20 23 20 21 9 11 10 8 13 12 10 7 2 5 5 4 3 12
38 9 20 25 23 18 12 2 3 11 9 14 15 26 7 6 8 9 5 11 13 13 7 11 8 27 18 23 16 28 23 12 18 16 15 6 11 4 5 3 2 4 5 11 17
35 3 24 29 19 16 5 2 5 7 9 11 22 8 3 3 4 5 8 14 5 15 9 9 14 19 16 20 22 28 23 13 10 10 10 8 4 4 5 5 6 9 12 15 19
31 4 25 29 14 10 4 6 4 12 12 10 7 6 6 10 7 4 5 3 3 4 11 3 8 7 25 23 25 28 26 12 7 12 11 12 8 5 9 8 8 10 13 17 22
22 5 21 26 10 10 5 7 11 19 18 6 6 6 6 8 12 3 5 6 5 6 9 6 1 4 23 10 26 18 21 18 3 2 6 9 8 2 8 9 11 12 16 21 25
13 3 19 25 9 4 8 12 21 12 27 5 8 10 4 14 6 5 6 8 6 8 4 9 2 5 25 12 17 16 23 21 12 8 2 2 4 3 9 10 12 16 20 23 27
16 6 13 19 7 9 13 12 10 19 16 7 7 6 8 11 7 9 6 13 23 9 3 3 4 4 9 1 4 16 29 16 9 2 4 4 5 4 12 13 19 21 22 27 33
10 5 8 8 18 13 16 10 15 24 11 20 11 9 16 16 9 10 10 9 26 19 10 9 3 3 6 12 7 9 25 22 13 8 6 3 11 11 14 14 17 23 28 29 28
11 3 4 7 10 16 17 7 22 16 8 15 5 13 19 9 13 3 14 13 16 16 10 3 4 5 10 17 22 15 22 24 16 12 3 12 17 18 15 17 20 27 28 29 26
8 7 6 16 16 15 10 10 16 21 13 14 8 23 16 12 14 19 9 6 6 10 12 8 3 5 6 18 25 16 13 24 16 7 11 16 10 13 20 24 24 28 29 25 23
16 15 7 8 12 12 9 19 23 22 12 18 20 19 17 11 13 25 27 20 17 11 6 4 5 2 5 19 18 10 12 19 14 8 12 12 13 18 18 15 18 23 24 25 23
Wind_Direction
352 349 346 344 342 339 337 336 333 329 325 322 319 315 310 303 303 297 286 286 277 256 233 225 200 198 191 191 188 177 220 228 226 222 227 233 198 226 236 234 208 225 259 305 304
348 345 343 341 338 336 334 333 331 327 325 322 318 315 315 316 310 292 288 276 265 232 223 206 189 177 176 190 189 199 225 225 223 226 226 240 245 220 225 199 216 229 269 326 319
345 343 341 339 337 333 330 329 326 320 317 315 316 313 315 321 316 279 294 199 134 211 213 206 198 175 187 186 189 207 230 229 226 230 236 246 247 230 245 248 246 246 277 322 316
344 342 339 337 334 330 327 325 322 316 312 312 313 312 312 309 286 251 218 238 19 149 200 192 187 188 198 198 203 232 230 228 228 222 233 239 246 237 236 245 254 242 275 297 267
343 343 343 341 337 333 331 327 323 316 310 307 304 301 301 271 254 260 250 241 243 244 203 185 188 199 203 207 206 228 231 218 233 230 235 249 243 254 234 243 245 250 262 276 257
345 344 342 338 334 330 326 322 318 314 309 302 295 288 262 260 283 300 235 245 245 246 224 197 203 205 222 215 211 212 223 234 231 236 242 251 254 239 240 237 244 252 259 266 244
343 341 337 333 331 328 323 319 315 309 298 291 283 253 248 242 271 272 244 231 236 226 224 226 211 193 203 213 232 225 221 227 235 231 242 254 258 244 239 239 252 254 270 263 252
342 341 337 335 332 330 326 322 321 307 290 282 272 233 249 267 278 266 262 258 235 214 214 215 208 221 215 224 136 211 233 234 209 204 231 215 249 2 202 209 226 236 245 251 246
344 343 339 338 335 334 329 335 330 315 293 272 210 198 256 272 276 310 258 235 237 218 208 183 207 218 204 216 220 208 226 223 235 215 207 204 256 247 237 204 220 226 230 232 232
345 344 340 336 335 335 335 340 336 326 30 108 183 200 252 238 311 331 235 190 163 181 205 215 213 206 213 199 211 205 223 209 207 196 213 220 229 253 200 219 219 223 234 236 230
347 344 340 335 336 343 344 353 346 321 239 248 250 249 267 267 283 250 157 147 139 155 176 192 209 213 208 214 219 221 209 224 206 204 207 231 235 233 238 226 234 234 235 231 230
347 344 338 335 340 355 351 8 341 302 297 275 262 262 259 259 283 253 221 192 188 206 187 176 223 218 218 217 219 224 192 217 223 220 218 233 240 230 245 236 235 230 232 230 224
345 343 336 337 346 352 347 352 345 312 277 299 270 253 269 184 221 259 195 218 217 231 211 210 229 203 204 204 213 223 217 204 194 192 214 235 243 225 239 222 223 220 225 230 224
345 345 336 334 343 340 349 337 331 325 289 287 281 302 158 177 258 229 188 146 205 229 217 232 237 220 207 210 202 215 212 208 200 211 202 205 247 217 226 214 209 208 213 223 222
344 345 337 337 335 341 329 328 326 318 295 11 7 79 342 293 309 264 198 191 182 199 206 216 206 208 205 210 204 221 185 199 219 229 235 197 241 243 220 230 216 210 211 218 224
344 343 329 343 339 335 326 325 308 260 269 324 334 344 331 323 297 260 182 226 224 220 213 247 224 196 206 207 203 193 179 190 201 218 233 228 223 218 208 228 217 209 232 234 227
346 347 5 351 341 337 335 332 274 251 348 356 329 321 313 294 318 242 208 198 201 186 212 221 242 227 202 195 197 203 168 161 188 196 214 216 210 220 202 241 289 297 287 176 182
346 4 11 0 346 344 343 290 286 353 326 315 297 308 267 341 297 314 255 241 226 231 266 202 193 214 203 197 181 193 181 175 173 186 192 156 212 208 229 355 336 62 88 115 126
348 31 12 354 345 350 340 353 344 337 304 319 311 284 293 3 267 300 269 257 242 208 223 206 223 179 189 200 186 191 198 189 148 177 170 172 149 151 144 122 90 87 101 97 100
350 25 9 356 1 8 32 338 318 319 332 309 288 312 318 309 309 291 277 215 223 222 241 281 215 209 192 205 198 183 190 194 194 168 176 185 188 137 162 142 114 101 105 91 94
357 13 0 11 12 41 31 325 309 314 324 303 300 292 297 335 306 273 284 308 97 296 252 183 70 206 195 185 191 184 190 211 150 232 176 155 188 63 153 140 126 112 88 88 102
359 332 353 6 32 357 352 330 306 310 339 316 280 298 319 322 297 295 315 320 237 198 211 188 139 183 194 155 225 178 199 190 192 159 97 193 109 340 140 131 117 97 93 99 105
336 299 352 13 20 0 333 329 320 324 338 341 304 301 337 330 312 316 309 321 339 328 232 167 208 133 120 67 252 199 186 194 205 136 190 145 131 140 125 115 111 109 110 110 110
356 338 341 16 360 342 335 342 340 332 319 336 286 297 327 325 333 296 324 325 339 339 59 169 252 348 173 169 132 177 180 193 187 189 159 106 139 150 139 123 123 121 118 114 111
16 14 353 314 335 330 324 306 338 348 326 323 293 323 328 311 312 289 334 332 323 355 355 44 4 3 139 151 154 173 171 182 191 173 171 156 150 156 143 136 133 126 119 114 110
16 343 307 297 314 326 335 333 325 326 321 309 287 310 302 291 289 301 321 344 304 340 338 358 324 315 149 156 150 172 176 182 183 101 80 135 102 134 118 126 128 129 125 113 108
350 339 285 291 318 334 327 324 312 321 307 299 305 305 305 292 298 289 282 272 264 292 307 328 330 77 121 152 144 152 193 168 139 169 148 159 148 128 125 127 125 120 116 112 107